Weather in Chikshino

Russia / Komi Republic     64°53′34″N   56°25′48″E
temp.,
°C
wind,
m/s
gust,
m/s
humid.,
%
clouds,
%
prec.,
mm/h
press.,
hPa
HPBL,
m
28 june, tue
tue2800:00+3nnw51083100 0.0 1014819
03:00+3n51382100 0.0 1014799
06:00+3n61487100 0.1 1015804
09:00+10nne7115640 0.1 10151185
12:00+13nne7104787 0.0 10161472
15:00+16n7114110 0.0 10171597
18:00+14n611482 0.0 10171318
21:00+9n512525 0.0 1019744
29 june, wed
wed2900:00+7n5136169 0.0 1019574
03:00+5nnw41159100 0.0 1018452
06:00+7nnw485797 0.0 1017624
09:00+11nnw5845100 0.0 10151315
12:00+14nnw6940100 0.0 10132264
15:00+12n695190 0.0 10131819
18:00+10nne695292 0.1 10131470
21:00+7nne510677 0.1 1015887
30 june, thu
thu3000:00+5nne510726 0.0 1016717
03:00+5nne5107679 0.0 1017895
06:00+7nne696010 0.0 1017954
09:00+11nne584811 0.0 10171195
12:00+14nne68425 0.0 10171447
15:00+16nne693427 0.0 10171592
18:00+15nne494164 0.0 10161402
21:00+10n386185 0.0 1017244
1 july, fri
fri100:00+7n310735 0.0 1017243
03:00+8n287385 0.0 1016278
06:00+12n35505 0.0 1016612
09:00+17n35318 0.0 10141035
12:00+21nnw34255 0.0 10121481
15:00+23nnw35255 0.0 10111858
18:00+21n243733 0.0 1010122
21:00+14nw246412 0.0 101082
2 july, sat
sat200:00+12nw289270 0.0 1010199
03:00+13nnw3890100 0.0 1011410
06:00+13nnw3887100 0.1 1010767
09:00+12nnw4883100 0.1 1011698
12:00+13n4862100 0.0 1011933
15:00+19n693921 0.0 10102094
18:00+17nne4949100 0.0 10111906
21:00+13n5105878 0.0 1012791